Location: Newark
(42.7133°N, 87.7910°W)
Time: 05:43:15
(UTC+00:00)

Tiros 1 - Pass Details

Date: 20 September 2019
Orbit: 630 x 664 km, 48.4° (Epoch: 14 October)

Event Time Altitude Azimuth Distance (km) Brightness Sun altitude
Rises 17:17:26 0° 197° (SSW) 2,967 11.1 47.9°
Reaches altitude 10° 17:20:21 10° 180° (S) 2,053 10.7 47.9°
Maximum altitude 17:23:40 19° 135° (SE) 1,535 10.0 48.0°
Drops below altitude 10° 17:26:59 10° 90° (E) 2,046 9.9 48.1°
Sets 17:29:51 0° 73° (ENE) 2,953 10.5 48.2°
